Fort Lewis, WA
on Saturday, December 22, 2012

Saturday
Previous Day Next Day
Daily Summary
 ActualAverage (KOLM)Record (KOLM)
Temperature
Mean Temperature °F 38°F  
Max Temperature 48°F 44°F 55°F (1950)
Min Temperature 35°F 32°F -3°F (1983)
Degree Days
Heating Degree Days 24 27  
Month to date heating degree days 583  
Since 1 July heating degree days 2028  
Cooling Degree Days 0 0  
Month to date cooling degree days 0  
Year to date cooling degree days 106  
Moisture
Dew Point 37°F   
Average Humidity 88    
Maximum Humidity 100    
Minimum Humidity 64    
Precipitation
Precipitation 0.07 in 0.22 in 1.42 in (1950)
Month to date precipitation 5.38  
Year to date precipitation 47.92  
Wind
Wind Speed 6 mph   
Max Wind Speed 21 mph   
Max Gust Speed 28 mph   
Visibility 10 miles   
Events Rain   

Key: T is trace of precipitation, MM is missing value
Source: NWS Daily Summary
Time(PST)TemperatureDew PointHumidity Pressure Visibility Wind DirectionWind SpeedGust SpeedPrecipitationEvents Conditions
12:58 AM 37.9°F 36.3°F 94% 29.63 in 10.0 miles NNE 3.5 mph - N/A   Overcast
1:58 AM 38.3°F 36.0°F 91% 29.62 in 10.0 miles NNE 4.6 mph - N/A   Scattered Clouds
2:58 AM 37.9°F 35.8°F 92% 29.60 in 10.0 miles NW 2.3 mph - N/A   Partly Cloudy
3:58 AM 36.5°F 35.8°F 97% 29.56 in 10.0 miles NW 1.2 mph - N/A   Mostly Cloudy
4:58 AM 36.0°F 35.6°F 99% 29.55 in 10.0 miles SSW 2.3 mph - N/A   Mostly Cloudy
5:58 AM 35.4°F 35.2°F 99% 29.54 in 10.0 miles SE 4.6 mph - N/A   Scattered Clouds
6:58 AM 36.0°F 35.6°F 99% 29.52 in 10.0 miles SE 3.5 mph - N/A   Mostly Cloudy
7:17 AM 35.6°F 35.6°F 100% 29.50 in 10.0 miles East 4.6 mph - N/A   Mostly Cloudy
7:42 AM 35.6°F 35.6°F 100% 29.49 in 10.0 miles Calm Calm - N/A   Overcast
7:52 AM 35.6°F 35.6°F 100% 29.49 in 10.0 miles SE 3.5 mph - N/A   Mostly Cloudy
7:58 AM 35.6°F 35.6°F 100% 29.51 in 10.0 miles SE 4.6 mph - N/A   Mostly Cloudy
8:33 AM 37.4°F 35.6°F 93% 29.50 in 10.0 miles NE 2.3 mph - N/A   Mostly Cloudy
8:43 AM 37.4°F 37.4°F 100% 29.51 in 10.0 miles SSE 2.3 mph - N/A   Overcast
8:52 AM 37.4°F 37.4°F 100% 29.52 in 10.0 miles South 4.6 mph - N/A   Overcast
8:53 AM 37.4°F 37.4°F 100% 29.52 in 10.0 miles South 3.5 mph - N/A   Overcast
8:58 AM 36.9°F 36.7°F 99% 29.54 in 10.0 miles South 3.5 mph - N/A   Overcast
9:14 AM 37.4°F 37.4°F 100% 29.52 in 10.0 miles ESE 2.3 mph - N/A   Overcast
9:16 AM 37.4°F 37.4°F 100% 29.51 in 10.0 miles ESE 2.3 mph - N/A   Overcast
9:24 AM 37.4°F 37.4°F 100% 29.52 in 10.0 miles East 2.3 mph - N/A   Overcast
9:28 AM 37.4°F 37.4°F 100% 29.52 in 10.0 miles ESE 2.3 mph - N/A   Overcast
9:58 AM 37.6°F 37.4°F 99% 29.54 in 10.0 miles ESE 2.3 mph - N/A   Mostly Cloudy
10:58 AM 41.4°F 39.0°F 91% 29.55 in 10.0 miles SE 3.5 mph - N/A   Mostly Cloudy
11:58 AM 46.9°F 38.1°F 71% 29.55 in 10.0 miles SSE 12.7 mph - N/A   Overcast
12:58 PM 48.0°F 36.5°F 64% 29.55 in 10.0 miles SE 12.7 mph 23.0 mph N/A   Mostly Cloudy
1:58 PM 46.0°F 36.3°F 69% 29.55 in 10.0 miles SSE 12.7 mph 23.0 mph N/A   Scattered Clouds
2:58 PM 45.5°F 36.3°F 70% 29.57 in 10.0 miles SE 18.4 mph 27.6 mph N/A   Clear
3:45 PM 44.6°F 35.6°F 71% 29.58 in 10.0 miles SSE 16.1 mph 26.5 mph N/A   Light Drizzle
3:58 PM 44.6°F 36.3°F 73% 29.61 in 10.0 miles SSE 18.4 mph 26.5 mph 0.00 in Rain Light Rain
4:03 PM 44.6°F 37.4°F 76% 29.59 in 9.0 miles South 20.7 mph 27.6 mph N/A Rain Light Rain
4:33 PM 42.8°F 37.4°F 81% 29.60 in 10.0 miles South 13.8 mph - N/A Rain Light Rain
4:41 PM 42.8°F 37.4°F 81% 29.60 in 10.0 miles South 11.5 mph - N/A   Mostly Cloudy
4:46 PM 42.8°F 37.4°F 81% 29.61 in 10.0 miles South 6.9 mph 17.3 mph N/A   Mostly Cloudy
4:58 PM 42.3°F 37.4°F 83% 29.63 in 10.0 miles South 8.1 mph - 0.05 in   Scattered Clouds
5:58 PM 43.3°F 34.9°F 72% 29.66 in 10.0 miles South 11.5 mph - N/A   Scattered Clouds
6:40 PM 42.8°F 35.6°F 76% 29.65 in 10.0 miles SSE 10.4 mph - N/A   Light Drizzle
6:49 PM 42.8°F 35.6°F 76% 29.65 in 10.0 miles SSE 9.2 mph - N/A   Scattered Clouds
6:58 PM 42.8°F 35.6°F 76% 29.68 in 10.0 miles SSE 9.2 mph - 0.00 in   Mostly Cloudy
7:18 PM 42.8°F 35.6°F 76% 29.66 in 10.0 miles SSE 10.4 mph - N/A   Mostly Cloudy
7:58 PM 42.3°F 35.2°F 76% 29.69 in 10.0 miles SSE 11.5 mph - N/A   Scattered Clouds
8:33 PM 42.8°F 35.6°F 76% 29.69 in 10.0 miles SSE 15.0 mph - N/A   Mostly Cloudy
8:38 PM 41.0°F 35.6°F 81% 29.69 in 10.0 miles SSE 15.0 mph - N/A   Mostly Cloudy
8:43 PM 41.0°F 35.6°F 81% 29.69 in 10.0 miles SSE 11.5 mph - N/A   Mostly Cloudy
8:58 PM 40.8°F 37.2°F 87% 29.71 in 10.0 miles SE 9.2 mph - 0.01 in   Light Drizzle
9:10 PM 39.2°F 37.4°F 93% 29.70 in 10.0 miles SE 4.6 mph - N/A   Overcast
9:20 PM 39.2°F 37.4°F 93% 29.70 in 10.0 miles SE 4.6 mph - N/A   Mostly Cloudy
9:25 PM 39.2°F 37.4°F 93% 29.70 in 10.0 miles SE 3.5 mph - N/A   Overcast
9:35 PM 39.2°F 37.4°F 93% 29.71 in 10.0 miles SE 1.2 mph - N/A   Overcast
9:40 PM 39.2°F 37.4°F 93% 29.71 in 10.0 miles SE 1.2 mph - N/A   Overcast
9:58 PM 39.6°F 37.9°F 94% 29.73 in 10.0 miles SE 2.3 mph - 0.00 in   Overcast
10:18 PM 39.2°F 37.4°F 93% 29.71 in 10.0 miles ESE 2.3 mph - N/A   Scattered Clouds
10:58 PM 39.0°F 36.1°F 89% 29.74 in 10.0 miles SE 6.9 mph - 0.01 in   Mostly Cloudy
11:58 PM 39.4°F 35.1°F 84% 29.75 in 10.0 miles SSE 9.2 mph - N/A   Clear
Moon Phase
Dec. 22 Dec. 28 Jan. 04 Jan. 11 Jan. 18
Sunrise:07:54 AM (PST) Moon Rise:12:55 PM (PST)12/22
Sunset:04:24 PM (PST) Moon Set:02:32 AM (PST)12/22

Copyright © 2014 The Weather Underground, Inc.